Home > Weather > Ajax > Past weeks

Flag for Canada Past Weather in Ajax, Ontario, Canada — Yesterday and Last 2 Weeks

Now
84 °F

Scattered clouds.


Feels Like: 84 °F
Forecast: N/A
Wind: 8 mph from Northwest

Location: Toronto Buttonville

Current Time: Jul 26, 2016 at 5:56:22 PM

Latest Report: Jul 26, 2016 at 5:00 PM


Visibility: 15 mi

Pressure: 29.95 "Hg

Humidity: 43%

Dew Point: 59 °F

Location of AjaxLocation

Past Weather in Ajax — Graph

°F

Ajax Temperature Yesterday

Maximum temperature yesterday: 88 °F (at 4:00 PM)
Minimum temperature yesterday: 72 °F (at 12:00 AM)
Average temperature yesterday: 77 °F

High & Low Weather Summary for the Past Weeks

 TemperatureHumidityPressure
High93 °F (Jul 13, 6:00 PM)94% (Jul 14, 2:00 AM)30.28 "Hg (Jul 14, 2:00 AM)
Low55 °F (Jul 17, 4:00 AM)24% (Jul 22, 5:45 PM)29.71 "Hg (Jul 14, 6:00 PM)
Average75 °F60%29.97 "Hg
* Reported Jul 11 4:00 PM — Jul 26 4:00 PM, Ajax, Weather by CustomWeather, © 2016

Note: Actual official high and low records may vary slightly from our data, if they occured in-between our weather recording intervals... More about our weather records

Advertising

Ajax Weather History for the Previous 24 Hours

Scroll right to see more
 ConditionsComfort  
Time TempWeatherWind HumidityBarometerVisibility
4:00 PM
Tue, Jul 26
82 °FScattered clouds.10 mph42%29.96 "Hg15 mi
3:00 PM84 °FScattered clouds.9 mph40%29.97 "Hg15 mi
2:00 PM82 °FPartly sunny.7 mph42%29.98 "Hg15 mi
1:00 PM81 °FScattered clouds.9 mph45%29.99 "Hg15 mi
12:00 PM79 °FPassing clouds.13 mph48%30.00 "Hg15 mi
11:00 AM77 °FPassing clouds.6 mph54%29.99 "Hg15 mi
10:00 AM75 °FPassing clouds.7 mph61%29.99 "Hg15 mi
9:00 AM72 °FPassing clouds.8 mph69%29.99 "Hg15 mi
8:00 AM68 °FPassing clouds.6 mph78%29.98 "Hg15 mi
7:00 AM66 °FPassing clouds.5 mph78%29.97 "Hg15 mi
6:00 AM64 °FPassing clouds.8 mph83%29.95 "Hg15 mi
5:00 AM64 °FClear.8 mph83%29.93 "Hg15 mi
4:00 AM66 °FClear.8 mph78%29.92 "Hg15 mi
3:00 AM66 °FClear.6 mph78%29.91 "Hg15 mi
2:00 AM68 °FClear.8 mph73%29.90 "Hg15 mi
1:00 AM70 °FClear.8 mph73%29.90 "Hg15 mi
11:00 PM
Mon, Jul 25
75 °FClear.9 mph65%29.89 "Hg15 mi
10:00 PM77 °FPassing clouds.6 mph57%29.87 "Hg15 mi
9:00 PM79 °FPassing clouds.5 mph54%29.85 "Hg15 mi
8:00 PM82 °FPassing clouds.12 mph45%29.84 "Hg15 mi
7:00 PM84 °FScattered clouds.14 mph43%29.82 "Hg15 mi
6:00 PM84 °FScattered clouds.18 mph43%29.81 "Hg15 mi
5:00 PM86 °FScattered clouds.12 mph43%29.81 "Hg15 mi
Weather by CustomWeather, © 2016

See weather overviewHow to use our weather pages